Wählen Sie einen anderen Zeitraum ( Verstecke diesen Bereich )

Einheiten Zeitraum Benutzerdefinierten Bereich Direkt zu
Metrisch Englisch Beide
Tägliche Wöchentliche Monatliche Jährlich
Verwenden Sie beide Datumsselektoren für einen benutzerdefinierten Bereich
vorherige Tag
Mit diesem Datum

Wetter Underground Graphen für diesen Zeitraum ( Klick hier ) Das Laden der Grafik kann bis zu einer Minute dauern!


Tägliche Zusammenfassung für Montag Nov 18 2019
Zeit Temp. ( °C ) Taupunkt ( °C ) Wind ( km/h ) Von Windböen ( km/h ) Luftdruck ( hPa ) Feuchtigkeit( % ) Niederschlagsrate ( cm ) Solar ( W/m2 )
Hoch7,8 3,0 16,1 WSW ( 150/411 ) 27,4 1010,7 97 0,20 545
Durchchnittswerte4,2 2,3 2,4 Windstille #106/171 5,9 1007,7 88 0,40 258 #80/171
Wenig2,2 1,4 -   0,0 1005,4 66 -  
Tägliche Tabellarische Details für Montag Nov 18 2019
Zeit Temp. ( °C ) Taupunkt ( °C ) Wind ( km/h ) Von Windböen ( km/h ) Luftdruck ( hPa ) Feuchtigkeit( % ) Niederschlagsrate ( cm ) Solar ( W/m2 )
00:00 3,2 2,5   Windstille   1005,4 95 - -
00:05 3,1 2,4   Windstille   1005,5 95 - -
00:10 3,0 2,3   Windstille   1005,5 95 - -
00:15 2,9 2,2   Windstille   1005,5 95 - -
00:20 3,2 2,4   Windstille   1005,6 95 - -
00:25 3,3 2,5   Windstille   1005,8 94 - -
00:30 3,4 2,6   Windstille   1005,9 94 - -
00:35 3,4 2,6   Windstille   1006,0 94 - -
00:40 3,4 2,6   Windstille   1006,1 94 - -
00:45 3,4 2,6   Windstille   1006,1 94 - -
00:50 3,6 2,7   Windstille   1006,2 94 - -
00:55 3,6 2,7   Windstille   1006,2 94 - -
01:00 3,6 2,7   Windstille   1006,3 94 - -
01:05 3,5 2,6   Windstille   1006,2 94 - -
01:10 3,4 2,6   Windstille   1006,1 94 - -
01:15 3,3 2,4   Windstille   1006,0 94 - -
01:20 3,3 2,6   Windstille   1006,0 95 - -
01:25 3,3 2,6   Windstille   1005,9 95 - -
01:30 3,3 2,6   Windstille   1005,8 95 - -
01:35 3,3 2,6   Windstille   1005,9 95 - -
01:40 3,3 2,6   Windstille   1005,8 95 - -
01:45 3,4 2,7   Windstille   1005,8 95 - -
01:50 3,4 2,7   Windstille   1005,8 95 - -
01:55 3,4 2,7   Windstille   1005,7 95 - -
02:00 3,4 2,7   Windstille   1005,7 95 - -
02:05 3,5 2,8   Windstille   1005,7 95 - -
02:10 3,4 2,7   Windstille   1005,7 95 - -
02:15 3,5 2,9   Windstille   1005,8 96 - -
02:20 3,5 2,8   Windstille   1006,0 95 - -
02:25 3,6 2,8   Windstille   1005,9 95 - -
02:30 3,5 2,8   Windstille   1005,8 95 - -
02:35 3,4 2,7   Windstille   1005,8 95 - -
02:40 3,3 2,6   Windstille   1005,8 95 - -
02:45 2,9 2,2   Windstille   1005,8 95 - -
02:50 2,7 2,0   Windstille   1005,6 95 - -
02:55 2,6 1,8   Windstille   1005,5 95 - -
03:00 2,4 1,8   Windstille   1005,6 96 - -
03:05 2,4 1,9   Windstille   1005,6 96 - -
03:10 2,3 1,8   Windstille   1005,7 96 - -
03:15 2,3 1,8   Windstille   1005,7 96 - -
03:20 2,4 1,9   Windstille   1005,8 97 - -
03:25 2,4 1,8   Windstille   1006,0 96 - -
03:30 2,4 2,0   Windstille   1005,9 97 - -
03:35 2,4 2,0   Windstille   1005,9 97 - -
03:40 2,4 2,0   Windstille   1005,9 97 - -
03:45 2,4 2,0   Windstille   1006,0 97 0,20 -
03:50 2,5 2,1   Windstille   1006,0 97 0,20 -
03:55 2,7 2,2   Windstille   1006,1 97 0,20 -
04:00 2,7 2,3   Windstille   1006,1 97 0,20 -
04:05 2,8 2,3   Windstille   1006,3 97 0,20 -
04:10 2,8 2,4   Windstille   1006,2 97 0,20 -
04:15 2,9 2,4   Windstille   1006,3 97 0,20 -
04:20 2,9 2,4   Windstille   1006,3 97 0,20 -
04:25 2,9 2,5   Windstille   1006,4 97 0,20 -
04:30 3,1 2,4   Windstille   1006,4 96 0,20 -
04:35 3,1 2,5   Windstille   1006,5 96 0,20 -
04:40 3,1 2,4   Windstille   1006,4 95 0,20 -
04:45 3,0 2,3   Windstille   1006,4 95 - -
04:50 2,9 2,2   Windstille   1006,5 95 - -
04:55 2,9 2,4   Windstille   1006,5 96 - -
05:00 3,0 2,4   Windstille   1006,6 96 - -
05:05 3,1 2,5   Windstille   1006,6 96 - -
05:10 3,1 2,6   Windstille   1006,7 96 - -
05:15 3,2 2,6   Windstille   1006,7 96 - -
05:20 3,2 2,6   Windstille   1006,8 96 - -
05:25 3,2 2,7   Windstille   1006,7 96 - -
05:30 3,2 2,7   Windstille   1006,7 96 - -
05:35 3,3 2,7   Windstille   1006,8 96 - -
05:40 3,3 2,7   Windstille   1006,8 96 - -
05:45 3,2 2,4   Windstille   1006,8 95 - -
05:50 3,2 2,6   Windstille   1006,8 96 - -
05:55 3,1 2,6   Windstille   1006,8 96 - -
06:00 3,1 2,5   Windstille   1006,9 96 - -
06:05 3,1 2,5   Windstille   1007,0 96 - -
06:10 3,1 2,6   Windstille   1007,0 96 - -
06:15 3,2 2,6   Windstille   1007,2 96 - -
06:20 3,1 2,6   Windstille   1007,2 96 - -
06:25 3,2 2,6   Windstille   1007,1 96 - -
06:30 3,1 2,5   Windstille   1007,2 96 - -
06:35 3,1 2,5   Windstille   1007,3 96 - -
06:40 3,1 2,6   Windstille   1007,2 96 - -
06:45 3,1 2,7   Windstille   1007,2 97 - -
06:50 3,0 2,4   Windstille   1007,2 96 - -
06:55 2,9 2,4   Windstille   1007,2 96 - -
07:00 2,9 2,3   Windstille   1007,3 96 - -
07:05 2,8 2,3   Windstille   1007,4 97 - -
07:10 2,8 2,2   Windstille   1007,4 96 - -
07:15 2,6 2,0   Windstille   1007,6 96 - -
07:20 2,4 1,9   Windstille   1007,6 96 - -
07:25 2,6 2,1   Windstille   1007,7 97 - -
07:30 2,6 2,0   Windstille   1007,8 96 - -
07:35 2,3 1,8   Windstille   1007,8 96 - 5
07:40 2,2 1,6   Windstille   1007,9 96 - 7
07:45 2,2 1,7   Windstille   1008,0 96 - 9
07:50 2,3 1,8   Windstille   1008,1 97 - 12
07:55 2,4 1,9   Windstille   1008,0 97 - 12
08:00 2,4 2,0   Windstille   1008,0 97 - 14
08:05 2,5 2,1   Windstille   1008,1 97 - 16
08:10 2,5 2,1   Windstille   1008,1 97 - 18
08:15 2,4 1,8   Windstille   1008,1 96 - 21
08:20 2,3 1,7   Windstille   1008,2 96 - 21
08:25 2,3 1,7   Windstille   1008,3 96 - 25
08:30 2,2 1,8   Windstille   1008,4 97 - 33
08:35 2,2 1,8 1,6 Osten 8,0 1008,4 97 - 74
08:40 2,3 1,8   Windstille 8,0 1008,5 97 - 81
08:45 2,3 1,9 1,6 OSO 8,0 1008,5 97 - 91
08:50 2,6 2,1   Windstille 4,8 1008,5 97 - 102
08:55 2,7 2,1 1,6 OSO 4,8 1008,6 96 - 113
09:00 2,9 2,3 1,6 OSO 8,0 1008,6 96 - 125
09:05 3,1 2,5 1,6 Osten 8,0 1008,6 96 - 139
09:10 3,3 2,6 3,2 OSO 4,8 1008,7 95 - 172
09:15 3,6 2,6 4,8 OSO 9,7 1008,8 93 - 172
09:20 3,8 2,6 3,2 OSO 8,0 1008,9 92 - 183
09:25 3,9 2,4 3,2 OSO 8,0 1008,8 90 - 193
09:30 4,1 2,4 3,2 OSO 4,8 1008,9 89 - 202
09:35 4,3 2,3 3,2 OSO 8,0 1008,9 87 - 234
09:40 4,6 2,4 4,8 Osten 8,0 1008,9 86 - 237
09:45 4,6 2,5 1,6 Osten 4,8 1009,0 86 - 315
09:50 5,0 2,7 1,6 SO 4,8 1009,0 85 - 285
09:55 5,3 3,0   Windstille 8,0 1009,1 85 - 206
10:00 5,2 2,8 1,6 SW 3,2 1009,2 84 - 359
10:05 5,4 2,9 3,2 SSW 8,0 1009,2 84 - 248
10:10 5,8 2,9 3,2 SW 9,7 1009,4 82 - 385
10:15 5,9 2,6 8,0 Süden 11,3 1009,4 79 - 345
10:20 5,8 2,5 3,2 SSO 9,7 1009,2 79 - 373
10:25 6,2 2,2 8,0 Süden 16,1 1009,1 76 - 418
10:30 6,3 2,8 4,8 SSO 9,7 1009,2 78 - 420
10:35 6,4 2,5 4,8 Süden 11,3 1009,2 76 - 116
10:40 6,4 2,7 4,8 Süden 12,9 1009,2 77 - 357
10:45 6,3 2,2 8,0 SSO 16,1 1009,3 75 - 473
10:50 6,8 2,8 3,2 WSW 16,1 1009,4 76 - 448
10:55 7,2 3,0 4,8 SW 12,9 1009,5 75 - 471
11:00 6,8 2,1 11,3 WSW 27,4 1009,5 72 - 285
11:05 6,7 2,2 8,0 WSW 19,3 1009,5 73 - 327
11:10 6,9 2,6 3,2 WSW 11,3 1009,5 74 - 309
11:15 7,0 2,5 4,8 Westen 11,3 1009,5 73 - 297
11:20 7,0 2,3 9,7 WSW 19,3 1009,5 72 - 332
11:25 7,0 2,7 4,8 SW 16,1 1009,6 74 - 299
11:30 7,1 2,6 8,0 SSW 16,1 1009,6 73 - 545
11:35 7,3 2,6 4,8 SW 25,7 1009,7 72 - 515
11:40 7,3 2,6 8,0 WSW 25,7 1009,6 72 - 459
11:45 7,3 2,4 9,7 WSW 16,1 1009,7 71 - 413
11:50 7,2 2,1 11,3 Süden 24,1 1009,6 70 - 295
11:55 7,2 2,3 8,0 Westen 14,5 1009,6 71 - 388
12:00 7,2 2,3 8,0 WSW 20,9 1009,5 71 - 427
12:05 7,1 2,2 9,7 WSW 19,3 1009,6 71 - 441
12:10 7,1 2,0 9,7 Westen 20,9 1009,7 70 - 427
12:15 7,3 2,2 11,3 WSW 19,3 1009,7 70 - 432
12:20 7,6 2,0 9,7 WSW 22,5 1009,8 68 - 446
12:25 7,3 1,9 3,2 SW 24,1 1009,8 69 - 394
12:30 7,6 1,8 16,1 SW 24,1 1009,8 67 - 434
12:35 7,5 1,9 9,7 WSW 24,1 1009,8 68 - 490
12:40 7,6 1,9 11,3 WSW 24,1 1009,9 67 - 459
12:45 7,6 1,8 11,3 WSW 27,4 1009,9 67 - 439
12:50 7,7 2,0 9,7 WSW 16,1 1010,0 67 - 487
12:55 7,7 2,1 9,7 SW 20,9 1010,0 68 - 480
13:00 7,8 2,3 3,2 WSW 19,3 1010,1 68 - 480
13:05 7,8 2,1 1,6 WNW 16,1 1010,2 67 - 188
13:10 7,7 1,9 9,7 WNW 19,3 1010,1 67 - 151
13:15 7,4 1,8 8,0 WSW 16,1 1010,1 68 - 144
13:20 7,3 1,8 4,8 WSW 20,9 1010,2 68 - 155
13:25 7,3 1,8 1,6 SW 12,9 1010,3 68 - 185
13:30 7,3 1,4 8,0 SSW 20,9 1010,4 66 - 125
13:35 7,2 1,4 11,3 Westen 25,7 1010,5 67 - 120
13:40 7,1 1,4 8,0 Westen 11,3 1010,5 67 - 109
13:45 7,1 1,6 4,8 Westen 11,3 1010,5 68 - 151
13:50 7,1 1,6 11,3 Westen 24,1 1010,6 68 - 232
13:55 7,1 1,6 9,7 Westen 24,1 1010,6 68 - 186
14:00 7,3 1,8 8,0 Westen 14,5 1010,7 68 - 369
14:05 7,4 1,7 8,0 Westen 12,9 1010,7 67 - 350
14:10 7,4 1,7 8,0 Westen 19,3 1010,7 67 - 309
Tägliche Zusammenfassung für Montag Nov 18 2019
Zeit Temp. ( °C ) Taupunkt ( °C ) Wind ( km/h ) Von Windböen ( km/h ) Luftdruck ( hPa ) Feuchtigkeit( % ) Niederschlagsrate ( cm ) Solar ( W/m2 )
Hoch7,8 3,0 16,1 WSW ( 150/411 ) 27,4 1010,7 97 0,20 545
Durchchnittswerte4,2 2,3 2,4 Windstille #106/171 5,9 1007,7 88 0,40 258 #80/171
Wenig2,2 1,4 -   0,0 1005,4 66 -  
Tägliche Tabellarische Details für Montag Nov 18 2019
Zeit Temp. ( °C ) Taupunkt ( °C ) Wind ( km/h ) Von Windböen ( km/h ) Luftdruck ( hPa ) Feuchtigkeit( % ) Niederschlagsrate ( cm ) Solar ( W/m2 )
00:00 3,2 2,5   Windstille   1005,4 95 - -
00:05 3,1 2,4   Windstille   1005,5 95 - -
00:10 3,0 2,3   Windstille   1005,5 95 - -
00:15 2,9 2,2   Windstille   1005,5 95 - -
00:20 3,2 2,4   Windstille   1005,6 95 - -
00:25 3,3 2,5   Windstille   1005,8 94 - -
00:30 3,4 2,6   Windstille   1005,9 94 - -
00:35 3,4 2,6   Windstille   1006,0 94 - -
00:40 3,4 2,6   Windstille   1006,1 94 - -
00:45 3,4 2,6   Windstille   1006,1 94 - -
00:50 3,6 2,7   Windstille   1006,2 94 - -
00:55 3,6 2,7   Windstille   1006,2 94 - -
01:00 3,6 2,7   Windstille   1006,3 94 - -
01:05 3,5 2,6   Windstille   1006,2 94 - -
01:10 3,4 2,6   Windstille   1006,1 94 - -
01:15 3,3 2,4   Windstille   1006,0 94 - -
01:20 3,3 2,6   Windstille   1006,0 95 - -
01:25 3,3 2,6   Windstille   1005,9 95 - -
01:30 3,3 2,6   Windstille   1005,8 95 - -
01:35 3,3 2,6   Windstille   1005,9 95 - -
01:40 3,3 2,6   Windstille   1005,8 95 - -
01:45 3,4 2,7   Windstille   1005,8 95 - -
01:50 3,4 2,7   Windstille   1005,8 95 - -
01:55 3,4 2,7   Windstille   1005,7 95 - -
02:00 3,4 2,7   Windstille   1005,7 95 - -
02:05 3,5 2,8   Windstille   1005,7 95 - -
02:10 3,4 2,7   Windstille   1005,7 95 - -
02:15 3,5 2,9   Windstille   1005,8 96 - -
02:20 3,5 2,8   Windstille   1006,0 95 - -
02:25 3,6 2,8   Windstille   1005,9 95 - -
02:30 3,5 2,8   Windstille   1005,8 95 - -
02:35 3,4 2,7   Windstille   1005,8 95 - -
02:40 3,3 2,6   Windstille   1005,8 95 - -
02:45 2,9 2,2   Windstille   1005,8 95 - -
02:50 2,7 2,0   Windstille   1005,6 95 - -
02:55 2,6 1,8   Windstille   1005,5 95 - -
03:00 2,4 1,8   Windstille   1005,6 96 - -
03:05 2,4 1,9   Windstille   1005,6 96 - -
03:10 2,3 1,8   Windstille   1005,7 96 - -
03:15 2,3 1,8   Windstille   1005,7 96 - -
03:20 2,4 1,9   Windstille   1005,8 97 - -
03:25 2,4 1,8   Windstille   1006,0 96 - -
03:30 2,4 2,0   Windstille   1005,9 97 - -
03:35 2,4 2,0   Windstille   1005,9 97 - -
03:40 2,4 2,0   Windstille   1005,9 97 - -
03:45 2,4 2,0   Windstille   1006,0 97 0,20 -
03:50 2,5 2,1   Windstille   1006,0 97 0,20 -
03:55 2,7 2,2   Windstille   1006,1 97 0,20 -
04:00 2,7 2,3   Windstille   1006,1 97 0,20 -
04:05 2,8 2,3   Windstille   1006,3 97 0,20 -
04:10 2,8 2,4   Windstille   1006,2 97 0,20 -
04:15 2,9 2,4   Windstille   1006,3 97 0,20 -
04:20 2,9 2,4   Windstille   1006,3 97 0,20 -
04:25 2,9 2,5   Windstille   1006,4 97 0,20 -
04:30 3,1 2,4   Windstille   1006,4 96 0,20 -
04:35 3,1 2,5   Windstille   1006,5 96 0,20 -
04:40 3,1 2,4   Windstille   1006,4 95 0,20 -
04:45 3,0 2,3   Windstille   1006,4 95 - -
04:50 2,9 2,2   Windstille   1006,5 95 - -
04:55 2,9 2,4   Windstille   1006,5 96 - -
05:00 3,0 2,4   Windstille   1006,6 96 - -
05:05 3,1 2,5   Windstille   1006,6 96 - -
05:10 3,1 2,6   Windstille   1006,7 96 - -
05:15 3,2 2,6   Windstille   1006,7 96 - -
05:20 3,2 2,6   Windstille   1006,8 96 - -
05:25 3,2 2,7   Windstille   1006,7 96 - -
05:30 3,2 2,7   Windstille   1006,7 96 - -
05:35 3,3 2,7   Windstille   1006,8 96 - -
05:40 3,3 2,7   Windstille   1006,8 96 - -
05:45 3,2 2,4   Windstille   1006,8 95 - -
05:50 3,2 2,6   Windstille   1006,8 96 - -
05:55 3,1 2,6   Windstille   1006,8 96 - -
06:00 3,1 2,5   Windstille   1006,9 96 - -
06:05 3,1 2,5   Windstille   1007,0 96 - -
06:10 3,1 2,6   Windstille   1007,0 96 - -
06:15 3,2 2,6   Windstille   1007,2 96 - -
06:20 3,1 2,6   Windstille   1007,2 96 - -
06:25 3,2 2,6   Windstille   1007,1 96 - -
06:30 3,1 2,5   Windstille   1007,2 96 - -
06:35 3,1 2,5   Windstille   1007,3 96 - -
06:40 3,1 2,6   Windstille   1007,2 96 - -
06:45 3,1 2,7   Windstille   1007,2 97 - -
06:50 3,0 2,4   Windstille   1007,2 96 - -
06:55 2,9 2,4   Windstille   1007,2 96 - -
07:00 2,9 2,3   Windstille   1007,3 96 - -
07:05 2,8 2,3   Windstille   1007,4 97 - -
07:10 2,8 2,2   Windstille   1007,4 96 - -
07:15 2,6 2,0   Windstille   1007,6 96 - -
07:20 2,4 1,9   Windstille   1007,6 96 - -
07:25 2,6 2,1   Windstille   1007,7 97 - -
07:30 2,6 2,0   Windstille   1007,8 96 - -
07:35 2,3 1,8   Windstille   1007,8 96 - 5
07:40 2,2 1,6   Windstille   1007,9 96 - 7
07:45 2,2 1,7   Windstille   1008,0 96 - 9
07:50 2,3 1,8   Windstille   1008,1 97 - 12
07:55 2,4 1,9   Windstille   1008,0 97 - 12
08:00 2,4 2,0   Windstille   1008,0 97 - 14
08:05 2,5 2,1   Windstille   1008,1 97 - 16
08:10 2,5 2,1   Windstille   1008,1 97 - 18
08:15 2,4 1,8   Windstille   1008,1 96 - 21
08:20 2,3 1,7   Windstille   1008,2 96 - 21
08:25 2,3 1,7   Windstille   1008,3 96 - 25
08:30 2,2 1,8   Windstille   1008,4 97 - 33
08:35 2,2 1,8 1,6 Osten 8,0 1008,4 97 - 74
08:40 2,3 1,8   Windstille 8,0 1008,5 97 - 81
08:45 2,3 1,9 1,6 OSO 8,0 1008,5 97 - 91
08:50 2,6 2,1   Windstille 4,8 1008,5 97 - 102
08:55 2,7 2,1 1,6 OSO 4,8 1008,6 96 - 113
09:00 2,9 2,3 1,6 OSO 8,0 1008,6 96 - 125
09:05 3,1 2,5 1,6 Osten 8,0 1008,6 96 - 139
09:10 3,3 2,6 3,2 OSO 4,8 1008,7 95 - 172
09:15 3,6 2,6 4,8 OSO 9,7 1008,8 93 - 172
09:20 3,8 2,6 3,2 OSO 8,0 1008,9 92 - 183
09:25 3,9 2,4 3,2 OSO 8,0 1008,8 90 - 193
09:30 4,1 2,4 3,2 OSO 4,8 1008,9 89 - 202
09:35 4,3 2,3 3,2 OSO 8,0 1008,9 87 - 234
09:40 4,6 2,4 4,8 Osten 8,0 1008,9 86 - 237
09:45 4,6 2,5 1,6 Osten 4,8 1009,0 86 - 315
09:50 5,0 2,7 1,6 SO 4,8 1009,0 85 - 285
09:55 5,3 3,0   Windstille 8,0 1009,1 85 - 206
10:00 5,2 2,8 1,6 SW 3,2 1009,2 84 - 359
10:05 5,4 2,9 3,2 SSW 8,0 1009,2 84 - 248
10:10 5,8 2,9 3,2 SW 9,7 1009,4 82 - 385
10:15 5,9 2,6 8,0 Süden 11,3 1009,4 79 - 345
10:20 5,8 2,5 3,2 SSO 9,7 1009,2 79 - 373
10:25 6,2 2,2 8,0 Süden 16,1 1009,1 76 - 418
10:30 6,3 2,8 4,8 SSO 9,7 1009,2 78 - 420
10:35 6,4 2,5 4,8 Süden 11,3 1009,2 76 - 116
10:40 6,4 2,7 4,8 Süden 12,9 1009,2 77 - 357
10:45 6,3 2,2 8,0 SSO 16,1 1009,3 75 - 473
10:50 6,8 2,8 3,2 WSW 16,1 1009,4 76 - 448
10:55 7,2 3,0 4,8 SW 12,9 1009,5 75 - 471
11:00 6,8 2,1 11,3 WSW 27,4 1009,5 72 - 285
11:05 6,7 2,2 8,0 WSW 19,3 1009,5 73 - 327
11:10 6,9 2,6 3,2 WSW 11,3 1009,5 74 - 309
11:15 7,0 2,5 4,8 Westen 11,3 1009,5 73 - 297
11:20 7,0 2,3 9,7 WSW 19,3 1009,5 72 - 332
11:25 7,0 2,7 4,8 SW 16,1 1009,6 74 - 299
11:30 7,1 2,6 8,0 SSW 16,1 1009,6 73 - 545
11:35 7,3 2,6 4,8 SW 25,7 1009,7 72 - 515
11:40 7,3 2,6 8,0 WSW 25,7 1009,6 72 - 459
11:45 7,3 2,4 9,7 WSW 16,1 1009,7 71 - 413
11:50 7,2 2,1 11,3 Süden 24,1 1009,6 70 - 295
11:55 7,2 2,3 8,0 Westen 14,5 1009,6 71 - 388
12:00 7,2 2,3 8,0 WSW 20,9 1009,5 71 - 427
12:05 7,1 2,2 9,7 WSW 19,3 1009,6 71 - 441
12:10 7,1 2,0 9,7 Westen 20,9 1009,7 70 - 427
12:15 7,3 2,2 11,3 WSW 19,3 1009,7 70 - 432
12:20 7,6 2,0 9,7 WSW 22,5 1009,8 68 - 446
12:25 7,3 1,9 3,2 SW 24,1 1009,8 69 - 394
12:30 7,6 1,8 16,1 SW 24,1 1009,8 67 - 434
12:35 7,5 1,9 9,7 WSW 24,1 1009,8 68 - 490
12:40 7,6 1,9 11,3 WSW 24,1 1009,9 67 - 459
12:45 7,6 1,8 11,3 WSW 27,4 1009,9 67 - 439
12:50 7,7 2,0 9,7 WSW 16,1 1010,0 67 - 487
12:55 7,7 2,1 9,7 SW 20,9 1010,0 68 - 480
13:00 7,8 2,3 3,2 WSW 19,3 1010,1 68 - 480
13:05 7,8 2,1 1,6 WNW 16,1 1010,2 67 - 188
13:10 7,7 1,9 9,7 WNW 19,3 1010,1 67 - 151
13:15 7,4 1,8 8,0 WSW 16,1 1010,1 68 - 144
13:20 7,3 1,8 4,8 WSW 20,9 1010,2 68 - 155
13:25 7,3 1,8 1,6 SW 12,9 1010,3 68 - 185
13:30 7,3 1,4 8,0 SSW 20,9 1010,4 66 - 125
13:35 7,2 1,4 11,3 Westen 25,7 1010,5 67 - 120
13:40 7,1 1,4 8,0 Westen 11,3 1010,5 67 - 109
13:45 7,1 1,6 4,8 Westen 11,3 1010,5 68 - 151
13:50 7,1 1,6 11,3 Westen 24,1 1010,6 68 - 232
13:55 7,1 1,6 9,7 Westen 24,1 1010,6 68 - 186
14:00 7,3 1,8 8,0 Westen 14,5 1010,7 68 - 369
14:05 7,4 1,7 8,0 Westen 12,9 1010,7 67 - 350
14:10 7,4 1,7 8,0 Westen 19,3 1010,7 67 - 309

Laden Sie Ihre Kopie dieses Datensatzes herunter  von WetterUnterground

Unsere Wetterdaten wie bei Weather Underground. Script entwickelt von Jim McMurry. Für die Verwendung der "Template" neu geschrieben Leuven-Template